Waarnemingen

Advertentie
Mijn weer
Enkoping, Zweden (2443): temperatuur & dauwpunt: 19.05.2019 21:00:00 - 25.05.2019 21:00:00 (CEST)Enkoping, Zweden (2443): windsnelheid & windstoten: 19.05.2019 21:00:00 - 25.05.2019 21:00:00 (CEST)Enkoping, Zweden (2443): windrichting: 19.05.2019 21:00:00 - 25.05.2019 21:00:00 (CEST)Enkoping, Zweden (2443): luchtdruk: 19.05.2019 21:00:00 - 25.05.2019 21:00:00 (CEST)Enkoping, Zweden (2443): zicht: 19.05.2019 21:00:00 - 25.05.2019 21:00:00 (CEST)Enkoping, Zweden (2443): neerslag: 19.05.2019 21:00:00 - 25.05.2019 21:00:00 (CEST)
Datum & Tijd tt [°C] td [°C] ff [km/u] ff [kn] fx [km/u] fx [kn] dd ppp [hPa] vv [km] rr [mm]
25.05.2019 21:00:00 12,4 10,6 0 0 7 4 N 1004,8 9 1,0
25.05.2019 20:00:00 14,6 8,8 0 0 11 6 N 1004,7 45 0,0
25.05.2019 19:00:00 14,9 8,6 4 2 14 8 ZW 1005,0 45 0,0
25.05.2019 18:00:00 15,5 8,7 7 4 14 8 ZW 1005,3 45 0,1
25.05.2019 17:00:00 14,7 8,9 7 4 14 8 Z 1005,7 45 0,0
25.05.2019 16:00:00 14,2 8,2 0 0 14 8 N 1005,9 45 0,0
25.05.2019 15:00:00 14,6 9,4 4 2 18 10 NO 1006,1 40 0,0
25.05.2019 14:00:00 13,0 9,4 7 4 18 10 N 1006,4 50 0,0
25.05.2019 13:00:00 12,3 9,1 7 4 18 10 NNW 1006,3 40 0,0
25.05.2019 12:00:00 12,1 8,9 11 6 18 10 NNW 1005,8 45 0,0
25.05.2019 11:00:00 10,4 8,3 7 4 22 12 NNW 1005,5 45 0,0
25.05.2019 10:00:00 10,1 8,5 11 6 18 10 N 1004,5 45 0,0
25.05.2019 09:00:00 10,1 8,5 7 4 22 12 NW 1004,0 45 0,0
25.05.2019 08:00:00 9,3 8,5 11 6 18 10 NW 1003,5 40 0,0
25.05.2019 07:00:00 9,4 8,8 7 4 18 10 NW 1002,9 45 0,0
25.05.2019 06:00:00 8,9 8,6 7 4 14 8 WNW 1002,4 45 0,0
25.05.2019 05:00:00 9,0 8,9 4 2 7 4 NW 1001,9 29 0,0
25.05.2019 04:00:00 8,8 8,7 0 0 4 2 N 1001,7 45 0,0
25.05.2019 03:00:00 8,0 7,7 0 0 4 2 N 1001,8 0,9 0,0
25.05.2019 02:00:00 9,4 8,9 0 0 14 8 N 1001,8 45 0,1
25.05.2019 01:00:00 9,6 9,1 4 2 11 6 ZZW 1002,1 45 0,0
25.05.2019 00:00:00 9,9 9,4 7 4 11 6 ZZW 1002,3 50 0,0
24.05.2019 23:00:00 9,9 9,3 4 2 7 4 ZZO 1002,5 50 0,0
24.05.2019 22:00:00 9,8 9,3 7 4 7 4 ZO 1002,8 45 0,1
24.05.2019 21:00:00 10,2 8,6 0 0 22 12 N 1002,9 35 0,6
24.05.2019 20:00:00 12,0 10,1 7 4 18 10 Z 1003,1 23 0,0
24.05.2019 19:00:00 12,0 9,7 7 4 7 4 OZO 1003,4 45 0,0
24.05.2019 18:00:00 12,3 9,9 0 0 14 8 N 1004,6 45 0,2
24.05.2019 17:00:00 12,3 9,3 11 6 25 14 ZW 1005,5 24 0,1
24.05.2019 16:00:00 13,0 9,1 11 6 25 14 W 1005,5 35 0,0
24.05.2019 15:00:00 14,7 8,9 14 8 40 21 W 1005,4 35 0,0
24.05.2019 14:00:00 18,4 5,9 14 8 25 14 ZW 1004,8 35 0,0
24.05.2019 13:00:00 17,8 6,9 11 6 25 14 Z 1005,3 40 0,0
24.05.2019 12:00:00 17,1 8,8 14 8 22 12 Z 1005,9 28 0,0
24.05.2019 11:00:00 16,4 9,6 11 6 25 14 ZZO 1006,8 40 0,0
24.05.2019 10:00:00 16,2 10,9 7 4 22 12 ZZO 1007,5 26 0,0
24.05.2019 09:00:00 15,4 10,0 7 4 18 10 Z 1007,9 35 0,0
24.05.2019 08:00:00 13,8 10,2 7 4 14 8 ZO 1008,4 30 0,0
24.05.2019 07:00:00 12,3 9,1 7 4 11 6 ZZO 1009,0 45 0,0
24.05.2019 06:00:00 8,7 8,6 0 0 0 0 N 1009,5 40 0,0
24.05.2019 05:00:00 5,3 5,2 0 0 0 0 N 1009,8 2,0 0,0
24.05.2019 04:00:00 5,9 5,8 0 0 0 0 N 1010,2 0,8 0,0
24.05.2019 03:00:00 6,4 6,3 0 0 0 0 N 1010,5 2,7 0,0
24.05.2019 02:00:00 7,1 7,0 0 0 0 0 N 1010,8 2,3 0,0
24.05.2019 01:00:00 7,5 7,4 0 0 0 0 N 1011,2 11 0,0
24.05.2019 00:00:00 8,5 8,2 0 0 0 0 N 1011,4 25 0,0
23.05.2019 23:00:00 10,1 8,4 0 0 0 0 N 1011,4 45 0,0
23.05.2019 22:00:00 13,3 8,6 0 0 14 8 N 1011,2 45 0,0
23.05.2019 21:00:00 14,5 8,9 7 4 18 10 ZW 1011,0 45 0,0
23.05.2019 20:00:00 16,2 9,1 7 4 22 12 ZW 1010,8 35 0,0
23.05.2019 19:00:00 17,3 9,2 7 4 22 12 WZW 1010,6 40 0,0
23.05.2019 18:00:00 17,3 9,2 11 6 18 10 WZW 1010,7 30 0,0
23.05.2019 17:00:00 17,4 10,3 7 4 14 8 WZW 1010,9 27 0,0
23.05.2019 16:00:00 16,1 12,8 7 4 11 6 WZW 1011,3 29 0,0
23.05.2019 15:00:00 13,2 12,6 0 0 7 4 N 1011,8 24 0,2
23.05.2019 14:00:00 12,3 11,8 0 0 7 4 N 1012,0 15 0,1
23.05.2019 13:00:00 11,9 11,4 0 0 4 2 N 1011,8 21 0,2
23.05.2019 12:00:00 11,2 10,9 0 0 7 4 N 1011,7 18 1,0
23.05.2019 11:00:00 10,5 10,3 4 2 7 4 N 1011,6 5 6,0
23.05.2019 10:00:00 10,3 9,8 0 0 18 10 N 1011,6 3,3 2,0
23.05.2019 09:00:00 10,1 9,8 11 6 18 10 NNO 1010,5 6 4,0
23.05.2019 08:00:00 10,7 9,9 0 0 7 4 N 1011,5 1,6 3,0
23.05.2019 07:00:00 11,5 10,2 4 2 14 8 NO 1010,8 15 0,0
23.05.2019 06:00:00 11,5 10,6 7 4 14 8 NNO 1010,2 19 0,0
23.05.2019 05:00:00 11,1 10,3 4 2 7 4 N 1010,5 21 0,0
23.05.2019 04:00:00 11,4 10,5 0 0 11 6 N 1010,6 28 0,0
23.05.2019 03:00:00 11,9 10,5 4 2 14 8 NO 1010,1 30 0,0
23.05.2019 02:00:00 12,7 10,8 4 2 14 8 NO 1010,2 40 0,0
23.05.2019 01:00:00 12,4 10,1 4 2 11 6 NNO 1010,7 40 0,0
23.05.2019 00:00:00 13,9 10,9 0 0 4 2 N 1011,1 45 0,0
22.05.2019 23:00:00 14,7 10,7 0 0 4 2 N 1011,3 45 0,0
22.05.2019 22:00:00 14,9 10,3 0 0 14 8 N 1010,9 45 0,0
22.05.2019 21:00:00 17,7 10,8 7 4 22 12 NO 1010,5 40 0,0
22.05.2019 20:00:00 19,8 11,0 11 6 29 16 NO 1009,9 40 0,0
22.05.2019 19:00:00 21,6 11,9 11 6 25 14 ONO 1009,6 29 0,0
22.05.2019 18:00:00 22,6 13,1 14 8 25 14 NNO 1009,4 30 0,0
22.05.2019 17:00:00 23,4 14,4 11 6 25 14 NNO 1009,7 28 0,0
22.05.2019 16:00:00 23,6 14,9 11 6 25 14 NO 1009,9 22 0,0
22.05.2019 15:00:00 23,9 14,9 11 6 22 12 ONO 1010,1 27 0,0
22.05.2019 14:00:00 24,1 15,0 7 4 22 12 NO 1010,5 30 0,0
22.05.2019 13:00:00 23,1 14,9 7 4 14 8 ONO 1010,8 26 0,0
22.05.2019 12:00:00 21,8 14,2 7 4 18 10 NO 1011,0 35 0,0
22.05.2019 11:00:00 20,6 13,3 11 6 18 10 NO 1010,9 24 0,0
22.05.2019 10:00:00 18,5 12,9 7 4 14 8 NNO 1011,2 35 0,0
22.05.2019 09:00:00 16,2 12,2 7 4 18 10 N 1011,2 45 0,0
22.05.2019 08:00:00 13,9 10,5 11 6 22 12 NNO 1011,3 30 0,0
22.05.2019 07:00:00 13,2 10,6 11 6 22 12 NNO 1011,3 35 0,0
22.05.2019 06:00:00 12,4 10,5 11 6 18 10 NNO 1011,2 20 0,0
22.05.2019 05:00:00 11,8 10,2 7 4 14 8 NNO 1011,3 40 0,0
22.05.2019 04:00:00 12,4 10,6 7 4 11 6 NNO 1011,1 40 0,0
22.05.2019 03:00:00 13,6 11,5 7 4 14 8 NNO 1011,0 40 0,0
22.05.2019 02:00:00 14,5 12,2 0 0 11 6 N 1011,1 40 0,0
22.05.2019 01:00:00 16,0 12,9 7 4 14 8 NNO 1011,5 35 0,0
22.05.2019 00:00:00 17,2 13,3 7 4 11 6 NO 1011,5 35 0,0
21.05.2019 23:00:00 18,5 14,0 7 4 7 4 NO 1011,6 35 0,0
21.05.2019 22:00:00 19,5 13,7 0 0 11 6 N 1011,2 30 0,0
21.05.2019 21:00:00 20,4 14,3 0 0 14 8 N 1010,7 45 0,0
21.05.2019 20:00:00 22,1 14,0 7 4 18 10 OZO 1010,4 35 0,0
21.05.2019 19:00:00 23,3 15,1 11 6 18 10 ZO 1010,2 35 0,0
21.05.2019 18:00:00 24,4 15,6 11 6 22 12 ZZO 1010,0 29 0,0
21.05.2019 17:00:00 24,9 15,5 11 6 18 10 ZO 1010,0 30 0,0
21.05.2019 16:00:00 24,5 14,9 11 6 25 14 ZO 1010,3 28 0,0
21.05.2019 15:00:00 25,7 15,1 11 6 25 14 O 1010,3 30 0,0
21.05.2019 14:00:00 25,2 14,6 11 6 25 14 NO 1010,3 40 0,0
21.05.2019 13:00:00 24,2 14,6 11 6 25 14 ONO 1010,6 26 0,0
21.05.2019 12:00:00 22,8 14,9 11 6 22 12 ONO 1010,9 30 0,0
21.05.2019 11:00:00 21,0 14,2 11 6 22 12 NNO 1011,1 30 0,0
21.05.2019 10:00:00 19,4 13,6 11 6 22 12 NNO 1011,0 30 0,0
21.05.2019 09:00:00 16,5 12,7 7 4 14 8 NNO 1011,2 40 0,0
21.05.2019 08:00:00 14,9 11,9 7 4 22 12 NNO 1011,0 35 0,0
21.05.2019 07:00:00 13,7 11,4 11 6 22 12 NNO 1010,8 35 0,0
21.05.2019 06:00:00 12,2 10,6 11 6 22 12 NNO 1010,9 40 0,0
21.05.2019 05:00:00 11,3 10,5 7 4 14 8 NNO 1010,9 24 0,0
21.05.2019 04:00:00 11,9 11,1 7 4 14 8 N 1010,9 21 0,0
21.05.2019 03:00:00 13,1 12,2 4 2 7 4 NNO 1011,2 28 0,0
21.05.2019 02:00:00 12,7 11,8 4 2 7 4 N 1011,3 21 0,0
21.05.2019 01:00:00 13,4 12,0 0 0 7 4 N 1011,5 30 0,0
21.05.2019 00:00:00 15,3 13,3 4 2 7 4 O 1011,5 40 0,0
20.05.2019 23:00:00 15,5 13,3 0 0 0 0 N 1011,3 40 0,0
20.05.2019 22:00:00 17,4 13,7 0 0 11 6 N 1011,4 35 0,0
20.05.2019 21:00:00 20,0 14,8 7 4 18 10 ZO 1011,1 40 0,0
20.05.2019 20:00:00 21,7 15,3 7 4 18 10 ZZO 1010,2 40 0,0
20.05.2019 19:00:00 22,6 14,9 11 6 22 12 ZZO 1010,1 40 0,0
20.05.2019 18:00:00 23,2 15,0 11 6 22 12 ZO 1010,2 40 0,0
20.05.2019 17:00:00 23,6 15,1 11 6 18 10 ZO 1010,4 45 0,0
20.05.2019 16:00:00 22,9 14,2 11 6 22 12 ZO 1010,5 35 0,0
20.05.2019 15:00:00 23,0 14,0 7 4 18 10 ZO 1010,8 35 0,0
20.05.2019 14:00:00 22,4 13,5 11 6 22 12 ZZO 1011,1 28 0,0
20.05.2019 13:00:00 21,6 13,5 7 4 18 10 ZO 1011,1 27 0,0
20.05.2019 12:00:00 20,0 13,2 11 6 18 10 O 1011,3 40 0,0
20.05.2019 11:00:00 17,8 11,8 11 6 22 12 O 1011,6 35 0,0
20.05.2019 10:00:00 17,2 12,1 11 6 22 12 O 1011,5 30 0,0
20.05.2019 09:00:00 15,9 12,1 11 6 22 12 NO 1011,5 35 0,0
20.05.2019 08:00:00 14,4 11,5 14 8 22 12 NO 1011,6 30 0,0
20.05.2019 07:00:00 13,5 11,9 11 6 22 12 NNO 1011,8 29 0,0
20.05.2019 06:00:00 13,1 12,3 7 4 14 8 NNO 1012,0 24 0,0
20.05.2019 05:00:00 12,7 12,5 4 2 11 6 N 1012,1 14 0,0
20.05.2019 04:00:00 13,0 13,0 4 2 11 6 NO 1012,5 9 0,0
20.05.2019 03:00:00 13,4 13,4 7 4 11 6 NNO 1012,9 4,0 0,0
20.05.2019 02:00:00 13,6 13,4 4 2 7 4 NO 1013,2 0,4 0,0
20.05.2019 01:00:00 12,9 12,7 4 2 7 4 N 1013,5 1,1 0,0
20.05.2019 00:00:00 14,6 14,0 0 0 7 4 N 1013,9 17 0,0
19.05.2019 23:00:00 16,0 15,0 4 2 11 6 O 1013,9 26 0,0
19.05.2019 22:00:00 16,8 15,1 4 2 11 6 ZO 1013,9 35 0,0
19.05.2019 21:00:00 17,4 15,0 0 0 14 8 N 1013,5 40 0,0

tt = temperatuur
td = dauwpunt
ff = windsnelheid
fx = windstoten
dd = windrichting
ppp = luchtdruk
vv = zicht
rr = neerslag

Weerstations in de omgeving